Regional Weather Roundup
Issued by NWS

Home | Current Version | Previous Version | Graphics & Text | Print | Product List | Glossary Off
Versions: 1 2 3 4 5 6 7 8 9 10 11 12 13 14 15 16 17 18 19 20 21 22 23 24 25 26 27 28 29 30 31 32 33 34 35 36 37 38 39 40 41 42 43 44 45 46 47 48 49 50

000
ASUS43 KMPX 200401
RWRMN
WEATHER ROUNDUP FOR MINNESOTA
NATIONAL WEATHER SERVICE TWIN CITIES/CHANHASSEN MN
1100 PM CDT SAT APR 19 2014


NOTE: "FAIR" INDICATES FEW OR NO CLOUDS BELOW 12,000 FEET WITH NO
SIGNIFICANT WEATHER AND/OR OBSTRUCTIONS TO VISIBILITY. N/A MEANS
CURRENT SKY AND/OR WEATHER CONDITIONS ARE NOT AVAILABLE.

MNZ060>063-068>070-200500-
   Twin Cities Metro

CITY           SKY/WX    TMP DP  RH WIND       PRES   REMARKS
TWIN CITIES    LGT RAIN  53  53 100 NW3       30.02R FOG
ST PAUL        CLOUDY    53  52  96 CALM      30.02R FOG
CRYSTAL        LGT RAIN  53  48  83 CALM      30.00S
BLAINE         CLOUDY    55  52  88 CALM      30.01R
EDEN PRAIRIE   CLOUDY    54  52  93 E3        30.00S FOG
LAKEVILLE      RAIN      54  52  94 CALM      30.01R
SOUTH ST PAUL  CLOUDY    58  54  88 CALM      30.00S FOG
LAKE ELMO      LGT RAIN  54  54 100 CALM      30.02S
$$
MNZ001>005-007-008-013>017-022>024-027-028-200500-
   Northwest Minnesota

CITY           SKY/WX    TMP DP  RH WIND       PRES   REMARKS
BEMIDJI        CLEAR     43  37  79 W7        29.99R
HALLOCK        CLOUDY    39  36  87 NW3       29.98R
ROSEAU         CLEAR     43  36  75 W7        29.97R
WARROAD        CLEAR     43  36  75 W9        29.97R
THIEF RVR FALL CLEAR     43  34  70 W8        30.00R
CROOKSTON      CLEAR     43  37  81 NW9       30.01R
FOSSTON        CLEAR     43  36  75 NW5       30.00S
DETROIT LAKES  CLEAR     46  37  71 N8        30.01R
PARK RAPIDS    CLEAR     45  31  58 MISG      29.97R
$$
MNZ006-009>011-018-025>026-200500-
   North Central Minnesota

CITY           SKY/WX    TMP DP  RH WIND       PRES   REMARKS
BAUDETTE       CLEAR     45  36  70 W5        29.95R
FLAG ISLAND    PTCLDY    41  34  75 W7        29.93S
INTL FALLS     CLEAR     44  35  70 W5        29.93R
WASKISH        CLEAR     43  37  81 SW10      29.96S
BIG FORK       CLEAR     46  30  53 CALM      29.97R
LONGVILLE      CLEAR     36  28  75 CALM      29.97S
GRAND RAPIDS   CLEAR     41  37  87 S7        29.97S
CRANE LAKE     CLEAR     43  37  81 S5        29.96R
ORR            CLEAR     45  37  76 S3        29.94R
COOK           CLEAR     46  39  76 S7        29.96R
$$
MNZ012-019>021-037-200500-
   Northeast Minnesota

CITY           SKY/WX    TMP DP  RH WIND       PRES   REMARKS
DULUTH         CLEAR     33  28  81 SE3       30.00S
ELY            CLEAR     43  36  75 S6        29.97S
HIBBING        CLEAR     39  34  82 SE5       29.98R
EVELETH        CLEAR     36  34  93 CALM      30.00S
DULUTH HARBOR  CLEAR     30  28  93 CALM      30.04S
TWO HARBORS    CLEAR     28  23  80 CALM      30.00S
SILVER BAY     CLEAR     28  28 100 CALM      30.00F
GRAND MARAIS     N/A     31  30  96 CALM      30.03F
G MARAIS ARPRT CLEAR     30  27  86 CALM      30.01S
$$
MNZ029>031-032-039>041-046>048-054>057-064-200500-
   West Central Minnesota

CITY           SKY/WX    TMP DP  RH WIND       PRES   REMARKS
FERGUS FALLS   CLEAR     52  28  40 S5        29.95S
WHEATON        CLEAR     50  34  53 SW5       30.00S
MORRIS         CLEAR     52  34  50 S5        29.99S
ALEXANDRIA     CLEAR     48  32  53 S5        30.00S
ELBOW LAKE     FAIR      51  33  49 S5        29.98S
WADENA         CLEAR     43  32  65 CALM      29.97S
GLENWOOD       PTCLDY    52  36  54 SW5       30.01R
APPLETON       PTCLDY    48  37  66 S5        30.00R
BENSON         PTCLDY    45  37  76 SW3       30.00S
ORTONVILLE     PTCLDY    54  30  40 S6        30.00R
MADISON        PTCLDY    52  37  58 W5        30.00F
WILLMAR        FAIR      46  41  81 SE3       30.02S
$$
MNZ033>034-036-042>043-049>051-058-059-200500-
   Central Minnesota

CITY           SKY/WX    TMP DP  RH WIND       PRES   REMARKS
ST CLOUD       PTCLDY    43  40  89 CALM      30.00S FOG
SAUK CENTRE    FAIR      45  37  71 CALM      30.00S
PAYNESVILLE    PTCLDY    42  36  80 CALM      30.01S
AITKIN         CLEAR     48  39  71 CALM      29.98R
PINE RIVER     CLEAR     39  30  70 CALM      30.01S
BRAINERD       CLEAR     43  31  62 CALM      29.99S
STAPLES        CLEAR     43  30  61 S3        29.98S
LONG PRAIRIE   FAIR      45  37  76 CALM      30.00S
LITTLE FALLS   CLEAR     46  36  66 CALM      30.00R
LITCHFIELD       N/A     48  46  93 CALM      30.01F
BUFFALO        CLOUDY    47  43  84 CALM      30.02R
MAPLE LAKE     MOCLDY    44  43  97 CALM      30.02S FOG
$$
MNZ037-044-045-052-053-200500-
   East Central Minnesota

CITY           SKY/WX    TMP DP  RH WIND       PRES   REMARKS
PRINCETON      FOG       39  37  93 CALM      30.01S VSB 1/4
MORA           CLEAR     34  32  93 CALM      30.02S FOG
CAMBRIDGE      PTCLDY    39  34  81 CALM      29.99S HAZE
RUSH CITY      PTCLDY    38  36  91 CALM      30.01S
MOOSE LAKE     CLEAR     37  32  81 NE3       29.99S
HINCKLEY       FAIR      36  36 100 CALM      30.00S
CLOQUET        CLEAR     30  28  93 CALM      30.00F
MCGREGOR       CLEAR     43  37  81 CALM      29.99S
$$
MNZ071>073-080-081-089-090-097-098-200500-
   Southwest Minnesota

CITY           SKY/WX    TMP DP  RH WIND       PRES   REMARKS
MONTEVIDEO     MOCLDY    50  39  66 SW3       30.02R
GRANITE FALLS  MOCLDY    48  40  74 S7        30.03R
CANBY          PTCLDY    49  35  59 SW5       30.02S
MARSHALL       PTCLDY    48  36  61 S5        30.01S
REDWOOD FALLS  CLOUDY    56  45  66 S5        30.01S
OLIVIA         CLOUDY    50  43  76 CALM      30.01S
PIPESTONE      CLOUDY    55  30  38 CALM      30.02S
WINDOM         CLOUDY    55  45  67 CALM      30.03R
WORTHINGTON    CLOUDY    55  43  62 NE5       30.05S
JACKSON        DRIZZLE   55  45  67 VRB5      30.03S
TRACY          CLOUDY    56  43  62 CALM      30.02S
SLAYTON        CLOUDY    54  42  62 CALM      30.04S
$$
MNZ065>067-074>077-082>085-091>093-200500-
   South Central Minnesota

CITY           SKY/WX    TMP DP  RH WIND       PRES   REMARKS
MANKATO        CLOUDY    55  52  88 CALM      30.02S
NEW ULM        CLOUDY    54  50  87 CALM      30.02R
ST JAMES       CLOUDY    55  48  76 CALM      30.03S
FAIRMONT       CLOUDY    57  48  72 N6        30.03S
GLENCOE        CLOUDY    55  46  71 CALM      30.02R
FARIBAULT      CLOUDY    61  52  72 CALM      30.02R
OWATONNA       CLOUDY    55  52  88 CALM      30.01S
WASECA         RAIN      59  54  82 CALM      30.03S
ALBERT LEA     CLOUDY    66  45  45 S9        30.01S
$$
MNZ078>079-086>088-094>096-200500-
   Southeast Minnesota

CITY           SKY/WX    TMP DP  RH WIND       PRES   REMARKS
ROCHESTER      CLOUDY    61  45  55 S14       30.03S
RED WING       LGT RAIN  54  52  94 CALM      30.00F
STANTON        CLOUDY    55  52  91 NW3       30.00S FOG
DODGE CENTER   CLOUDY    63  45  51 S8        30.02S
WINONA           N/A    N/A N/A N/A MISG        N/A
AUSTIN         CLOUDY    63  45  51 S9        30.03S
PRESTON        CLOUDY    62  45  52 S16       30.06S
$$
ABBREVIATIONS USED IN REMARKS
   TC - TEMPERATURES IN CELSIUS
  WCI - WIND CHILL INDEX
   HX - HEAT INDEX
  VSB - VISIBILITY
$$


USA.gov is the U.S. government's official web portal to all federal, state and local government web resources and services.